W4WWT Weather Reports


time (UTC)temp
C
wind
direction
speed
KPH
gust
KPH
rain 1hr
cm
rain 24hr
cm
rain mn
cm
humidity
%
barometer
mb
20260906095502 20 106 0.0 0.0 0.00 0.00 0.00 100 1020.0
20260906094003 20 109 0.0 0.0 0.00 0.00 0.00 100 1020.0
20260906092502 20 108 0.0 0.0 0.00 0.00 0.00 100 1020.0
20260906091501 20 105 0.0 0.0 0.00 0.00 0.00 100 1020.0
20260906090001 20 122 0.0 0.0 0.00 0.00 0.00 100 1020.0
20260906084502 20 98 0.0 0.0 0.00 0.00 0.00 100 1020.0
20260906083502 21 105 0.0 0.0 0.00 0.00 0.00 100 1020.0
20260906082002 21 116 0.0 0.0 0.00 0.00 0.00 100 1020.0
20260906080505 21 97 0.0 0.0 0.00 0.00 0.00 100 1020.0
20260906075003 21 127 0.0 0.0 0.00 0.00 0.00 100 1019.6
20260906074002 21 123 0.0 0.0 0.00 0.00 0.00 100 1019.6
20260906072506 21 165 0.0 0.0 0.00 0.00 0.00 100 1019.6
20260906071002 21 185 0.0 0.0 0.00 0.00 0.00 100 1020.0
20260906065502 21 191 0.0 0.0 0.00 0.00 0.00 100 1020.0
20260906064006 21 156 0.0 0.0 0.00 0.00 0.00 100 1020.0
20260906063001 21 93 0.0 0.0 0.00 0.00 0.00 100 1020.0
20260906061503 21 124 0.0 0.0 0.00 0.00 0.00 100 1020.7
20260906060002 21 137 0.0 0.0 0.00 0.00 0.00 100 1020.7
20260906054506 21 102 0.0 0.0 0.00 0.00 0.00 100 1021.0
20260906052508 21 100 0.0 0.0 0.00 0.00 0.00 100 1021.3
20260906044003 22 108 0.0 0.0 0.00 0.00 0.00 100 1021.0
20260906042503 22 155 0.0 0.0 0.00 0.00 0.00 100 1021.0
20260906041002 22 93 0.0 0.0 0.00 0.00 0.00 100 1021.3
20260906040002 22 95 0.0 0.0 0.00 0.00 0.00 100 1021.3
20260906034502 22 173 0.0 0.0 0.00 0.00 0.28 100 1021.3
20260906033004 22 124 0.0 0.0 0.00 0.00 0.28 100 1021.3
20260906030002 22 113 0.0 0.0 0.00 0.00 0.28 100 1021.3
20260906024503 23 122 0.0 0.0 0.00 0.00 0.28 100 1021.3
20260906023502 23 132 0.0 1.6 0.00 0.00 0.28 100 1021.3
20260906022010 23 291 0.0 0.0 0.00 0.00 0.28 100 1021.0
20260906020502 23 295 0.0 0.0 0.00 0.00 0.28 100 1021.3
20260906014002 23 121 0.0 0.0 0.00 0.00 0.28 99 1021.0
20260906012502 23 105 0.0 0.0 0.00 0.00 0.28 99 1021.0
20260906005502 23 134 0.0 0.0 0.00 0.00 0.28 98 1020.3
20260906004501 24 112 0.0 0.0 0.00 0.00 0.28 97 1020.0
20260906000503 25 266 0.0 0.0 0.00 0.00 0.28 95 1019.6
20260905235002 25 307 0.0 0.0 0.00 0.00 0.28 93 1020.0
20260905233505 26 203 0.0 0.0 0.00 0.00 0.28 91 1020.0
20260905232002 26 140 0.0 0.0 0.00 0.00 0.28 90 1020.0
20260905230503 26 2 0.0 0.0 0.00 0.00 0.28 89 1020.0
20260905225002 26 59 0.0 0.0 0.00 0.00 0.28 87 1020.0
20260905224001 26 75 0.0 0.0 0.00 0.00 0.28 88 1020.0
20260905221004 26 69 0.0 0.0 0.00 0.00 0.28 90 1020.0
20260905215502 26 320 0.0 0.0 0.00 0.00 0.28 89 1020.0
20260905214003 26 78 0.0 0.0 0.00 0.00 0.28 86 1020.0
20260905212502 26 249 0.0 0.0 0.00 0.00 0.28 84 1020.0
20260905211002 26 89 0.0 3.2 0.00 0.00 0.28 85 1020.0
20260905205506 26 269 0.0 0.0 0.00 0.00 0.28 79 1020.3
20260905204502 26 68 0.0 0.0 0.00 0.00 0.28 79 1020.3
20260905203501 26 119 0.0 3.2 0.00 0.00 0.28 80 1021.3
20260905202008 26 321 0.0 1.6 0.13 0.00 0.28 83 1021.0
20260905201006 25 218 0.0 6.4 0.28 0.00 0.28 89 1021.0
20260905200002 25 89 0.0 3.2 0.28 0.00 0.28 90 1021.0
20260905194503 25 297 4.8 8.0 0.28 0.00 0.28 88 1021.3
20260905193006 28 94 6.4 11.3 0.25 0.00 0.25 80 1020.3
20260905192002 32 64 4.8 9.7 0.00 0.00 0.00 53 1020.3
20260905190504 35 109 3.2 4.8 0.00 0.00 0.00 50 1020.0
20260905185002 36 270 0.0 4.8 0.00 0.00 0.00 50 1020.3
20260905183502 35 75 3.2 4.8 0.00 0.00 0.00 52 1020.3
20260905182501 35 97 0.0 0.0 0.00 0.00 0.00 53 1020.3
20260905181002 36 254 0.0 0.0 0.00 0.00 0.00 52 1020.7
20260905175503 36 186 0.0 0.0 0.00 0.00 0.00 53 1021.0
20260905174003 35 21 0.0 0.0 0.00 0.00 0.00 55 1021.0
20260905172502 35 212 0.0 1.6 0.00 0.00 0.00 53 1021.3
20260905171002 35 91 0.0 0.0 0.00 0.00 0.00 54 1021.0
20260905165502 35 213 0.0 0.0 0.00 0.00 0.00 54 1021.7
20260905164002 33 52 0.0 0.0 0.00 0.00 0.00 60 1022.0
20260905162503 34 56 0.0 0.0 0.00 0.00 0.00 60 1022.0
20260905161004 33 334 0.0 0.0 0.00 0.00 0.00 61 1022.4
20260905155502 33 313 0.0 0.0 0.00 0.00 0.00 62 1022.4
20260905154002 32 275 0.0 0.0 0.00 0.00 0.00 66 1022.4
20260905151003 31 87 0.0 0.0 0.00 0.00 0.00 67 1022.7
20260905145502 30 103 0.0 0.0 0.00 0.00 0.00 72 1022.7
20260905141005 26 12 0.0 0.0 0.00 0.00 0.00 85 1023.0
20260905140005 26 336 0.0 0.0 0.00 0.00 0.00 87 1023.0
20260905134503 25 324 0.0 0.0 0.00 0.00 0.00 94 1023.0
20260905133007 23 12 0.0 0.0 0.00 0.00 0.00 97 1023.0
20260905131502 23 20 0.0 0.0 0.00 0.00 0.00 100 1023.0
20260905130002 22 11 0.0 0.0 0.00 0.00 0.00 100 1023.0
20260905124502 22 12 0.0 0.0 0.00 0.00 0.00 100 1023.0
20260905123501 21 26 0.0 0.0 0.00 0.00 0.00 100 1023.0
20260905122002 21 73 0.0 0.0 0.00 0.00 0.00 100 1023.0
20260905120503 21 78 0.0 0.0 0.00 0.00 0.00 100 1023.0
20260905115502 21 82 0.0 0.0 0.00 0.00 0.00 100 1022.7
20260905114501 20 75 0.0 0.0 0.00 0.00 0.00 100 1022.7
20260905113002 20 89 0.0 0.0 0.00 0.00 0.00 100 1022.4
20260905105502 21 89 0.0 0.0 0.00 0.00 0.00 100 1022.0
20260905104002 21 109 0.0 0.0 0.00 0.00 0.00 100 1022.0
20260905103001 21 315 0.0 0.0 0.00 0.00 0.00 100 1022.0
20260905101502 21 95 0.0 0.0 0.00 0.00 0.00 100 1022.0